Weather History for KGSH - November, 2011

Change the Weather History Date:

Tuesday, November 29, 2011

  Actual Average Record
Temperature  
Mean Temperature 35 °F -  
Max Temperature 37 °F 39 °F 64 °F (1998)
Min Temperature 33 °F 27 °F 5 °F (1955)
Degree Days  
Heating Degree Days 30    
Moisture  
Dew Point 32 °F    
Average Humidity 89    
Maximum Humidity 96    
Minimum Humidity 75    
Precipitation  
Precipitation 0.86 in - - ()
Sea Level Pressure  
Sea Level Pressure 29.80 in    
Wind  
Wind Speed 15 mph (NNW)    
Max Wind Speed 24 mph    
Max Gust Speed 34 mph    
Visibility 4 miles    
Events Fog , Rain , Snow    
Averages and records for this station are not official NWS values.
T = Trace of Precipitation, MM = Missing Value Source: NWS Daily Summary

Daily Weather History Graph

Daily Weather History Graph

Search for Another Location

Airport or City:

Trip Planner

Search our weather history database for the weather conditions in past years. The results will help you decide how hot, cold, wet, or windy it might be!

Date:

Astronomy

Nov. 29, 2011 Rise Set
Actual Time 7:47 AM EST 5:14 PM EST
Civil Twilight 7:17 AM EST 5:45 PM EST
Nautical Twilight 6:42 AM EST 6:19 PM EST
Astronomical Twilight 6:09 AM EST 6:53 PM EST
Moon 11:32 AM EST (11/29) 10:08 PM EST (11/29)
Length of Visible Light 10h 28m
Length of Day
9h 26m
Waxing Crescent, 24% of the Moon is Illuminated
Nov 29
Waxing Crescent
Dec 2
First Quarter
Dec 10
Full
Dec 17
Last Quarter
Dec 24
New

Hourly Weather History & Observations

Time (EST) Temp. Windchill Dew Point Humidity Pressure Visibility Wind Dir Wind Speed Gust Speed Precip Events Conditions
12:53 AM 37.0 °F 29.8 °F 35.1 °F 93% 29.91 in 6.0 mi North 10.4 mph - 0.09 in Rain Light Rain
1:53 AM 37.0 °F 27.7 °F 34.0 °F 89% 29.87 in 6.0 mi North 16.1 mph - 0.10 in Rain Rain
2:53 AM 36.0 °F 26.7 °F 33.1 °F 89% 29.84 in 7.0 mi North 15.0 mph - 0.12 in Rain Light Rain
3:53 AM 37.0 °F 28.1 °F 33.1 °F 86% 29.84 in 8.0 mi NNE 15.0 mph 24.2 mph 0.04 in Rain Light Rain
4:53 AM 37.0 °F 28.5 °F 33.1 °F 86% 29.81 in 10.0 mi North 13.8 mph 25.3 mph 0.05 in   Overcast
5:53 AM 37.0 °F 27.4 °F 33.1 °F 86% 29.81 in 9.0 mi North 17.3 mph 27.6 mph 0.01 in Rain Light Rain
6:32 AM 37.4 °F 27.2 °F 33.8 °F 87% 29.78 in 10.0 mi NNE 19.6 mph 26.5 mph 0.01 in Rain Light Rain
7:53 AM 36.0 °F 25.0 °F 32.0 °F 86% 29.79 in 9.0 mi NNE 20.7 mph 32.2 mph 0.14 in Rain Light Rain
8:53 AM 36.0 °F 25.0 °F 32.0 °F 86% 29.79 in 10.0 mi NNE 20.7 mph 27.6 mph 0.02 in   Overcast
9:53 AM 36.0 °F 25.3 °F 32.0 °F 86% 29.78 in 10.0 mi NNE 19.6 mph 31.1 mph N/A   Overcast
10:53 AM 36.0 °F 24.7 °F 32.0 °F 86% 29.78 in 10.0 mi North 21.9 mph 28.8 mph N/A   Overcast
11:53 AM 37.0 °F 26.4 °F 32.0 °F 82% 29.75 in 10.0 mi NNE 20.7 mph 33.4 mph N/A   Overcast
12:53 PM 37.0 °F 28.1 °F 33.1 °F 86% 29.75 in 5.0 mi North 15.0 mph 29.9 mph 0.04 in Rain Rain
1:53 PM 36.0 °F 26.7 °F 33.1 °F 89% 29.74 in 4.0 mi North 15.0 mph 21.9 mph 0.05 in Rain Light Rain
2:53 PM 35.1 °F 29.3 °F 32.0 °F 89% 29.77 in 3.0 mi NNW 6.9 mph - 0.05 in Snow Light Snow
3:01 PM 35.6 °F 28.0 °F 32.0 °F 87% 29.74 in 2.0 mi NNW 10.4 mph - 0.01 in Snow Light Snow
3:10 PM 33.8 °F 26.4 °F 32.0 °F 93% 29.75 in 1.5 mi NW 9.2 mph - 0.02 in Snow Light Snow
3:44 PM 33.8 °F 27.0 °F 32.0 °F 93% 29.76 in 0.8 mi NW 8.1 mph - 0.03 in Snow Light Snow
3:53 PM 33.1 °F 26.1 °F 32.0 °F 96% 29.79 in 0.8 mi NW 8.1 mph - 0.03 in Snow Light Snow
3:58 PM 33.8 °F 26.4 °F 32.0 °F 93% 29.77 in 0.5 mi NW 9.2 mph - 0.00 in Fog , Snow Snow
4:24 PM 33.8 °F 25.8 °F 30.2 °F 87% 29.78 in 0.5 mi NW 10.4 mph - 0.01 in Fog , Snow Snow
4:53 PM 33.1 °F 24.9 °F 30.9 °F 92% 29.80 in 0.8 mi NW 10.4 mph - 0.01 in Snow Light Snow
5:17 PM 33.8 °F 24.3 °F 30.2 °F 87% 29.77 in 0.8 mi NNW 13.8 mph - 0.01 in Snow Light Snow
5:22 PM 33.8 °F 24.3 °F 30.2 °F 87% 29.78 in 1.0 mi NNW 13.8 mph - 0.01 in Snow Light Snow
5:33 PM 33.8 °F 23.2 °F 30.2 °F 87% 29.77 in 0.8 mi NNW 17.3 mph 23.0 mph 0.01 in Snow Light Snow
6:10 PM 33.8 °F 21.9 °F 30.2 °F 87% 29.78 in 0.5 mi NNW 21.9 mph 27.6 mph 0.01 in Fog , Snow Snow
6:25 PM 33.8 °F 21.3 °F 32.0 °F 93% 29.78 in 0.8 mi North 24.2 mph 34.5 mph 0.01 in Snow Light Snow
6:51 PM 33.8 °F 23.2 °F 32.0 °F 93% 29.79 in 0.5 mi NNW 17.3 mph - 0.02 in Fog , Snow Snow
6:53 PM 33.1 °F 21.9 °F 32.0 °F 96% 29.81 in 0.5 mi NNW 18.4 mph - 0.02 in Fog , Snow Snow
7:20 PM 33.8 °F 23.5 °F 32.0 °F 93% 29.80 in 0.8 mi NNW 16.1 mph - 0.00 in Snow Light Snow
7:25 PM 33.8 °F 23.9 °F 32.0 °F 93% 29.80 in 0.5 mi NNW 15.0 mph - 0.00 in Fog Fog
7:36 PM 33.8 °F 22.8 °F 30.2 °F 87% 29.80 in 0.8 mi NNW 18.4 mph 25.3 mph 0.01 in Snow Light Snow
7:53 PM 33.1 °F 22.6 °F 30.9 °F 92% 29.82 in 1.0 mi NNW 16.1 mph - 0.01 in Snow Light Snow
8:21 PM 33.8 °F 24.3 °F 32.0 °F 93% 29.80 in 1.0 mi NNW 13.8 mph - 0.01 in Snow Light Snow
8:31 PM 33.8 °F 24.8 °F 32.0 °F 93% 29.80 in 3.0 mi NNW 12.7 mph - 0.01 in Snow Light Snow
8:38 PM 33.8 °F 24.8 °F 32.0 °F 93% 29.81 in 6.0 mi NNW 12.7 mph - 0.01 in   Overcast
8:53 PM 34.0 °F 25.0 °F 32.0 °F 92% 29.83 in 9.0 mi NNW 12.7 mph - 0.02 in   Overcast
9:53 PM 35.1 °F 24.8 °F 30.9 °F 85% 29.83 in 7.0 mi NNW 17.3 mph 24.2 mph 0.02 in Snow Light Snow
10:53 PM 34.0 °F 24.2 °F 27.0 °F 75% 29.84 in 10.0 mi NNW 15.0 mph - 0.02 in   Overcast
11:53 PM 33.1 °F 24.4 °F 26.1 °F 75% 29.85 in 10.0 mi NW 11.5 mph - 0.02 in   Mostly Cloudy